Location: Pinon Hills
(34.4429°N, 117.6403°W)
Time: 21:08:56
(UTC-07:00)

Daily predictions for brighter satellites

Satellite Brightness Start Highest point End
(mag) Time Altitude Azimuth Time Altitude Azimuth Time Altitude Azimuth
CSL-04 Rocket 4.4 18:28:49 10° S 18:34:08 60° WSW 18:39:25 10° NNW
Cosmos 1328 4.0 18:31:10 10° N 18:35:01 47° E 18:38:49 10° SSE
AQUARIUS 4.4 18:31:21 10° S 18:35:50 77° WSW 18:40:21 10° NNW
Meteor 2-15 Rocket 4.5 18:33:17 10° N 18:39:19 60° E 18:45:19 10° SSE
DELTA 2 R/B (1) 4.1 18:35:26 10° W 18:40:52 51° N 18:46:19 10° ENE
Atlas Centaur 2 2.4 18:36:25 10° WSW 18:40:57 53° S 18:46:43 10° E
NOSS 3-4 (A) 4.0 18:34:17 10° NNW 18:41:30 86° WSW 18:49:10 10° SSE
NOSS 3-4 (C) 4.0 18:34:23 10° NNW 18:41:36 87° WSW 18:49:17 10° SSE
Cosmos 1484 Rocket 3.4 18:38:20 10° S 18:42:03 60° W 18:45:44 10° NNW
YAOGAN 1 2.5 18:40:02 10° SSE 18:44:20 74° ENE 18:48:40 10° N
USA 267 3.9 18:39:26 10° ENE 18:45:23 37° SE 18:51:18 10° SSW
Meteor 1-16 Rocket 4.1 18:40:29 10° S 18:45:47 88° W 18:51:08 10° N
Cosmos 1727 Rocket 4.4 18:40:52 10° N 18:46:51 42° E 18:52:48 10° SSE
ALOS 3.1 18:43:13 10° SE 18:47:13 29° ENE 18:51:14 10° NNE
CZ-4 R/B 2.2 18:46:28 10° S 18:50:38 61° W 18:54:48 10° NNW
Cosmos 1703 4.0 18:49:31 10° NNE 18:53:01 30° ENE 18:56:28 10° SE
GP-B 3.1 18:49:01 10° N 18:53:26 64° E 18:57:48 10° S
CZ-3 Stage 3 1.1 18:51:57 10° WSW 18:53:42 28° S 18:55:07 12° ESE
FENGYUN 3A 4.2 18:49:52 10° SE 18:54:46 37° ENE 18:59:42 10° N
CZ-4C R/B 3.5 18:52:02 10° SE 18:55:03 16° ESE 18:57:35 12° ENE
Tiangong 1 0.7 18:55:47 10° NW 18:58:28 60° NNE 19:00:26 16° ESE
MOS 1 4.2 18:53:52 10° SSE 18:59:29 77° ENE 19:05:10 10° N
SL-08 R/B 4.4 18:54:34 10° S 19:00:47 83° E 19:06:56 10° N
Cosmos-2242 4.4 18:56:49 10° SSW 19:00:52 42° W 19:04:56 10° N
ASTRO E2 3.3 18:58:39 10° WSW 19:02:29 46° S 19:05:26 16° ESE
Cosmos 1400 Rocket 3.0 18:58:36 10° N 19:02:32 48° E 19:06:22 10° SSE
GRACE-2 4.2 19:02:20 10° SSE 19:04:44 35° E 19:07:08 10° NNE
ERS-2 3.9 19:01:36 10° S 19:05:02 37° W 19:08:30 10° NNW
GRACE-1 4.0 19:04:08 10° SSE 19:06:35 40° E 19:09:03 10° NNE
SKYMED 2 4.1 19:06:34 10° N 19:10:51 61° WNW 19:15:07 10° SSW
Cosmos 1908 3.6 19:08:05 10° SSE 19:11:46 41° E 19:15:28 10° NNE
Cosmos 1624 Rocket 4.1 19:06:45 10° NNW 19:11:59 84° WSW 19:17:13 10° SSE
Thor Agena Rocket 3.6 19:09:54 10° NNE 19:14:51 49° E 19:19:43 10° S
Cosmos 1743 Rocket 3.5 19:13:26 10° N 19:17:49 89° ENE 19:22:14 10° S
Iridium 4 Rocket 3.9 19:13:42 10° SSE 19:18:41 43° E 19:24:03 10° NNE
H-2A R/B 3.6 19:18:13 21° ESE 19:19:46 28° ENE 19:23:08 10° NNE
Cosmos 2151 2.9 19:15:58 10° N 19:20:15 71° E 19:24:29 10° SSE
SL-16 R/B 2.6 19:15:30 10° NNW 19:21:07 66° WSW 19:26:42 10° S
Cosmos 1842 Rocket 3.9 19:16:52 10° SSW 19:21:19 70° W 19:25:46 10° N
FALCON 9 R/B 2.7 19:20:17 10° WSW 19:22:20 22° SSW 19:25:33 11° SE
GENESIS II 4.1 19:19:12 10° SSW 19:23:10 83° ESE 19:26:52 12° NNE
Delta 2 Rocket 2.8 19:19:43 10° WSW 19:23:22 85° S 19:24:46 33° E
Cosmos 1726 4.3 19:21:58 10° SSE 19:22:26 12° SE 19:22:26 12° SE
Cosmos 44 3.7 19:21:15 10° S 19:25:12 32° ESE 19:26:23 28° E
FREGAT/IRIS 3.8 19:28:22 26° NNE 19:28:22 26° NNE 19:30:06 10° N
Centaur D AC-28 3.9 19:26:05 10° S 19:29:19 19° SE 19:30:47 18° ESE
ISS -2.4 19:27:22 10° WNW 19:30:25 36° SW 19:33:01 13° SSE
APEX 3.2 19:27:57 10° S 19:31:24 41° ESE 19:31:24 41° ESE
Cosmos 2221 2.4 19:28:17 10° S 19:32:32 64° E 19:36:49 10° NNE
Cosmos 44 Rocket 3.5 19:31:33 10° S 19:36:01 44° ESE 19:37:31 33° ENE
Cosmos 1500 Rocket 3.9 19:35:52 10° NNW 19:40:10 66° W 19:44:26 10° S
Cosmos 1315 Rocket 2.7 19:39:30 10° N 19:43:35 78° E 19:47:40 10° SSE
Cosmos 158 Rocket 3.8 19:41:21 10° SSW 19:46:18 81° ESE 19:51:26 10° NNE
Cosmos 1535 Rocket 4.4 19:41:02 10° S 19:47:03 58° E 19:53:02 10° NNE
Cosmos 921 Rocket 2.9 19:42:53 10° N 19:47:18 64° ENE 19:48:43 40° SE
Cosmos 1269 Rocket 3.9 19:48:14 10° S 19:53:26 65° ESE 19:57:37 16° NNE
Cosmos 2058 4.2 19:50:12 10° NNW 19:54:09 42° W 19:58:03 10° SSW
COSMOS 2428 3.1 19:53:16 10° N 19:58:24 41° ENE 19:58:24 41° ENE
RESURS DK-1 2.2 19:54:39 10° NNW 19:58:48 85° ENE 19:59:03 78° SE
Cosmos 2098 Rocket 2.9 19:56:20 10° S 20:00:10 89° W 20:05:07 10° N
Cosmos 2333 Rocket 3.8 19:57:36 10° N 20:00:04 19° NNE 20:00:04 19° NNE
FengYun 1-2 T 4.2 19:58:07 10° SSE 20:03:39 85° WSW 20:09:10 10° NNW
SJ-6B 3.8 20:06:33 36° NNW 20:06:33 36° NNW 20:08:53 10° NNW
Cosmos 2360 Rocket 2.4 19:59:39 10° NNW 20:05:18 72° WSW 20:09:59 15° S
Cosmos 2219 3.1 20:00:36 10° SSW 20:06:19 79° ESE 20:09:45 26° NNE
SL-24 R/B - RUBIN 2 3.5 20:07:19 10° NNW 20:11:47 79° NNW 20:11:47 79° NNW
MOS 1-B Rocket 3.9 20:16:03 58° NE 20:16:03 58° NE 20:21:18 10° N
Cosmos 1452 Rocket 4.1 20:12:13 10° NNW 20:17:21 56° WSW 20:21:11 18° S
Cosmos 1805 Rocket 4.3 20:13:56 10° N 20:16:56 43° NNW 20:16:56 43° NNW
Cosmos 1821 Rocket 4.2 20:12:48 10° SSW 20:18:53 67° W 20:25:04 10° N
OAO 1 Rocket 4.3 20:15:46 10° WSW 20:20:53 82° SW 20:20:53 82° SW
DELTA 2 R/B (1) 3.8 20:22:17 10° WNW 20:27:28 61° N 20:27:28 61° N
Cosmos 1934 Rocket 4.1 20:21:40 10° S 20:27:59 76° W 20:34:23 10° N
USA 267 3.8 20:24:25 23° NNE 20:28:26 54° NW 20:34:45 10° WSW
Atlas Centaur 2 2.6 20:24:33 10° W 20:29:49 54° S 20:29:49 54° S
Cosmos 2322 4.3 20:25:28 10° NNW 20:31:02 53° WSW 20:33:23 32° SSW
CZ-4C R/B 2.7 20:37:49 10° SW 20:42:47 53° NW 20:42:52 53° NW
Cosmos 2123 Rocket 4.2 20:44:44 10° N 20:50:17 66° NW 20:50:17 66° NW
Cosmos 2219 Rocket 3.7 20:50:20 10° NNW 20:52:46 27° NNW 20:52:46 27° NNW
